Weather in Imperatriz

Brazil     5°31′34″S   47°28′38″W
temp.,
°C
wind,
m/s
gust,
m/s
humid.,
%
clouds,
%
prec.,
mm/h
press.,
hPa
HPBL,
m
12 may, wed
wed1200:00+22e118631 0.0 101221
03:00+21ese118845 0.0 101123
06:00+21ese129115 0.0 101248
09:00+26ese367110 0.0 1014551
12:00+30ese3554100 0.0 10121460
15:00+31se2557100 0.0 10101857
18:00+26sse117894 0.1 101113
21:00+24ese117880 0.1 101311
13 may, thu
thu1300:00+23ne1181100 0.0 101311
03:00+22sw1184100 0.0 101211
06:00+21sw0187100 0.0 101211
09:00+26ese1174100 0.0 1014313
12:00+30s235950 0.0 10121091
15:00+31sse235633 0.0 10101490
18:00+26se117521 0.0 101011
21:00+24s11765 0.0 101211
14 may, fri
fri1400:00+24nnw117870 0.0 101315
03:00+23n128233 0.0 101161
06:00+22e119035 0.0 101212
09:00+25n1279100 0.0 1014260
12:00+29ssw11659 0.1 1013724
15:00+29e237273 1.2 1010843
18:00+24ene229313 2.2 101123
21:00+23ene1294100 2.3 101238
15 may, sat
sat1500:00+23nnw119499 0.0 101223
03:00+21nw009795 0.0 101111
06:00+21ene1196100 0.0 101211
09:00+26s128083 0.3 1014319
12:00+30e466250 0.8 10121395
15:00+28e247648 2.4 1010942
18:00+24ene1191100 2.3 101111
21:00+23ne1195100 2.3 101218
16 may, sun
sun1600:00+22nne119694 0.1 101313
03:00+22ne119798 0.1 101111
06:00+21ne129883 0.1 101352
09:00+24ne2490100 0.1 1015481
12:00+27ene247483 0.1 1013919
15:00+28e238092 1.3 1010742
18:00+24se1194100 1.8 101112
21:00+23ene1196100 4.0 101315